When you browse on this site, cookies collect data to enhance your experience and personalize the content and advertising you see.
Visit our Privacy Policy to learn more. By continuing to use the site, you agree to this use of cookies and data.
  • In Spain
  • List of Countries
  • For 7 days
  • Water Temperature
  • Weather Map
  • Weather Widgets
  • user-avatar
    Login

    Hourly Weather Semey

    Today, 4 June, Thursday

    Time Temperature Precipitation Wind Pressure Humidity
    00:00 +18°C° 0.1 mm 2 mps 738 mmHg 50%
    01:00 +18°C° 0.1 mm 2 mps 738 mmHg 53%
    02:00 +17°C° 0.1 mm 3 mps 738 mmHg 55%
    03:00 +17°C° 0.1 mm 3 mps 738 mmHg 57%
    04:00 +16°C° 0.1 mm 3 mps 738 mmHg 60%
    05:00 +15°C° 0.1 mm 4 mps 738 mmHg 62%
    06:00 +15°C° 0 mm 4 mps 738 mmHg 63%
    07:00 +15°C° 0 mm 4 mps 738 mmHg 65%
    08:00 +15°C° 0 mm 4 mps 738 mmHg 66%
    09:00 +16°C° 0.1 mm 3 mps 738 mmHg 65%
    10:00 +17°C° 0.1 mm 3 mps 738 mmHg 65%
    11:00 +17°C° 0.1 mm 2 mps 738 mmHg 64%
    12:00 +17°C° 0 mm 2 mps 738 mmHg 61%
    13:00 +17°C° 0 mm 2 mps 738 mmHg 58%
    14:00 +18°C° 0 mm 2 mps 738 mmHg 55%
    15:00 +19°C° 0 mm 3 mps 738 mmHg 49%
    16:00 +20°C° 0 mm 3 mps 738 mmHg 43%
    17:00 +20°C° 0 mm 3 mps 738 mmHg 37%
    18:00 +19°C° 0 mm 3 mps 738 mmHg 39%
    19:00 +18°C° 0 mm 3 mps 737 mmHg 41%
    20:00 +16°C° 0 mm 3 mps 737 mmHg 43%
    21:00 +14°C° 0 mm 3 mps 737 mmHg 46%
    22:00 +13°C° 0 mm 3 mps 737 mmHg 48%
    23:00 +12°C° 0 mm 3 mps 738 mmHg 51%

    Tomorrow, 5 June, Friday

    Time Temperature Precipitation Wind Pressure Humidity
    00:00 +12°C° 0 mm 3 mps 738 mmHg 53%
    01:00 +11°C° 0 mm 3 mps 738 mmHg 56%
    02:00 +10°C° 0 mm 3 mps 738 mmHg 58%
    03:00 +10°C° 0 mm 4 mps 738 mmHg 61%
    04:00 +9°C° 0 mm 5 mps 739 mmHg 64%
    05:00 +9°C° 0 mm 7 mps 739 mmHg 67%
    06:00 +10°C° 0 mm 7 mps 739 mmHg 60%
    07:00 +11°C° 0 mm 8 mps 739 mmHg 52%
    08:00 +12°C° 0 mm 8 mps 739 mmHg 44%
    09:00 +12°C° 0 mm 8 mps 740 mmHg 44%
    10:00 +12°C° 0 mm 9 mps 740 mmHg 44%
    11:00 +13°C° 0 mm 9 mps 740 mmHg 43%
    12:00 +12°C° 0 mm 9 mps 740 mmHg 50%
    13:00 +11°C° 0 mm 9 mps 740 mmHg 58%
    14:00 +9°C° 0 mm 10 mps 741 mmHg 65%
    15:00 +10°C° 0.2 mm 9 mps 741 mmHg 68%
    16:00 +9°C° 0.2 mm 8 mps 741 mmHg 71%
    17:00 +9°C° 0.2 mm 8 mps 742 mmHg 74%
    18:00 +9°C° 0.1 mm 6 mps 742 mmHg 73%
    19:00 +9°C° 0.1 mm 5 mps 743 mmHg 71%
    20:00 +10°C° 0.1 mm 4 mps 743 mmHg 70%
    21:00 +10°C° 0 mm 4 mps 744 mmHg 72%
    22:00 +8°C° 0 mm 4 mps 744 mmHg 75%
    23:00 +8°C° 0 mm 3 mps 744 mmHg 77%

    Day after tomorrow, 6 June, Saturday

    Time Temperature Precipitation Wind Pressure Humidity
    00:00 +8°C° 0 mm 3 mps 745 mmHg 80%
    01:00 +8°C° 0 mm 3 mps 745 mmHg 82%
    02:00 +7°C° 0 mm 3 mps 745 mmHg 84%
    03:00 +8°C° 0 mm 2 mps 745 mmHg 82%
    04:00 +8°C° 0 mm 2 mps 746 mmHg 80%
    05:00 +8°C° 0 mm 2 mps 746 mmHg 78%
    06:00 +10°C° 0 mm 3 mps 747 mmHg 69%
    07:00 +12°C° 0 mm 3 mps 747 mmHg 61%
    08:00 +13°C° 0 mm 3 mps 747 mmHg 53%
    09:00 +14°C° 0 mm 3 mps 747 mmHg 51%
    10:00 +14°C° 0 mm 3 mps 747 mmHg 48%
    11:00 +15°C° 0 mm 4 mps 747 mmHg 45%
    12:00 +18°C° 0 mm 4 mps 747 mmHg 44%
    13:00 +19°C° 0 mm 4 mps 747 mmHg 44%
    14:00 +20°C° 0 mm 4 mps 747 mmHg 43%
    15:00 +21°C° 0 mm 4 mps 747 mmHg 42%
    16:00 +21°C° 0 mm 5 mps 747 mmHg 40%
    17:00 +21°C° 0 mm 5 mps 747 mmHg 39%
    18:00 +20°C° 0 mm 4 mps 747 mmHg 41%
    19:00 +20°C° 0 mm 3 mps 747 mmHg 42%
    20:00 +19°C° 0 mm 3 mps 747 mmHg 44%
    21:00 +18°C° 0 mm 3 mps 747 mmHg 48%
    22:00 +17°C° 0 mm 3 mps 747 mmHg 51%
    23:00 +16°C° 0 mm 2 mps 747 mmHg 55%

    7 June, Sunday

    Time Temperature Precipitation Wind Pressure Humidity
    00:00 +15°C° 0 mm 2 mps 747 mmHg 62%
    01:00 +14°C° 0 mm 2 mps 747 mmHg 70%
    02:00 +13°C° 0 mm 2 mps 747 mmHg 77%
    03:00 +14°C° 0 mm 2 mps 747 mmHg 78%
    04:00 +13°C° 0 mm 3 mps 747 mmHg 79%
    05:00 +13°C° 0 mm 3 mps 747 mmHg 80%
    06:00 +15°C° 0 mm 4 mps 747 mmHg 70%
    07:00 +18°C° 0 mm 4 mps 748 mmHg 60%
    08:00 +20°C° 0 mm 5 mps 748 mmHg 50%
    09:00 +21°C° 0 mm 5 mps 748 mmHg 45%
    10:00 +22°C° 0 mm 5 mps 747 mmHg 41%
    11:00 +23°C° 0 mm 5 mps 747 mmHg 36%
    12:00 +23°C° 0 mm 5 mps 747 mmHg 36%
    13:00 +23°C° 0 mm 5 mps 747 mmHg 36%
    14:00 +23°C° 0 mm 5 mps 747 mmHg 35%
    15:00 +23°C° 0 mm 6 mps 747 mmHg 36%
    16:00 +23°C° 0 mm 6 mps 747 mmHg 36%
    17:00 +23°C° 0 mm 6 mps 746 mmHg 36%
    18:00 +22°C° 0 mm 5 mps 746 mmHg 40%
    19:00 +21°C° 0 mm 4 mps 747 mmHg 43%
    20:00 +20°C° 0 mm 3 mps 747 mmHg 47%
    21:00 +19°C° 0 mm 3 mps 747 mmHg 51%
    22:00 +18°C° 0 mm 3 mps 746 mmHg 56%
    23:00 +16°C° 0 mm 2 mps 746 mmHg 60%

    8 June, Monday

    Time Temperature Precipitation Wind Pressure Humidity
    00:00 +16°C° 0 mm 2 mps 746 mmHg 62%
    01:00 +15°C° 0 mm 2 mps 746 mmHg 64%
    02:00 +15°C° 0 mm 2 mps 746 mmHg 66%
    03:00 +15°C° 0 mm 2 mps 746 mmHg 65%
    04:00 +16°C° 0 mm 3 mps 746 mmHg 65%
    05:00 +16°C° 0 mm 3 mps 746 mmHg 65%
    06:00 +18°C° 0 mm 4 mps 746 mmHg 58%
    07:00 +20°C° 0 mm 4 mps 746 mmHg 50%
    08:00 +22°C° 0 mm 5 mps 746 mmHg 43%
    09:00 +23°C° 0 mm 5 mps 746 mmHg 40%
    10:00 +25°C° 0 mm 5 mps 746 mmHg 36%
    11:00 +26°C° 0 mm 5 mps 745 mmHg 33%
    12:00 +26°C° 0 mm 5 mps 745 mmHg 34%
    13:00 +26°C° 0 mm 5 mps 745 mmHg 34%
    14:00 +26°C° 0 mm 5 mps 744 mmHg 35%
    15:00 +25°C° 0 mm 5 mps 744 mmHg 36%
    16:00 +25°C° 0 mm 5 mps 744 mmHg 36%
    17:00 +24°C° 0 mm 6 mps 744 mmHg 37%
    18:00 +23°C° 0 mm 5 mps 743 mmHg 40%
    19:00 +22°C° 0 mm 4 mps 743 mmHg 43%
    20:00 +21°C° 0 mm 3 mps 743 mmHg 46%
    21:00 +20°C° 0 mm 3 mps 743 mmHg 49%
    22:00 +19°C° 0 mm 2 mps 743 mmHg 52%
    23:00 +17°C° 0 mm 2 mps 743 mmHg 56%

    9 June, Tuesday

    Time Temperature Precipitation Wind Pressure Humidity
    00:00 +17°C° 0 mm 2 mps 743 mmHg 57%
    01:00 +17°C° 0 mm 2 mps 743 mmHg 59%
    02:00 +16°C° 0 mm 2 mps 743 mmHg 61%
    03:00 +17°C° 0 mm 2 mps 743 mmHg 60%
    04:00 +17°C° 0 mm 2 mps 743 mmHg 59%
    05:00 +18°C° 0 mm 2 mps 743 mmHg 59%
    06:00 +19°C° 0 mm 2 mps 743 mmHg 52%
    07:00 +21°C° 0 mm 3 mps 743 mmHg 46%
    08:00 +24°C° 0 mm 3 mps 743 mmHg 39%
    09:00 +25°C° 0 mm 4 mps 743 mmHg 37%
    10:00 +26°C° 0 mm 4 mps 742 mmHg 35%
    11:00 +27°C° 0 mm 4 mps 742 mmHg 32%
    12:00 +27°C° 0 mm 5 mps 742 mmHg 32%
    13:00 +27°C° 0 mm 5 mps 742 mmHg 32%
    14:00 +27°C° 0 mm 5 mps 741 mmHg 32%
    15:00 +27°C° 0 mm 6 mps 741 mmHg 34%
    16:00 +27°C° 0 mm 6 mps 741 mmHg 36%
    17:00 +27°C° 0 mm 6 mps 741 mmHg 38%
    18:00 +23°C° 0.5 mm 4 mps 741 mmHg 52%
    19:00 +20°C° 0.5 mm 3 mps 741 mmHg 66%
    20:00 +19°C° 0.5 mm 1 mps 741 mmHg 81%
    21:00 +18°C° 0.4 mm 2 mps 741 mmHg 82%
    22:00 +17°C° 0.4 mm 3 mps 741 mmHg 84%
    23:00 +17°C° 0.4 mm 4 mps 741 mmHg 86%
    Show more